TimeCST,TemperatureF,Dew PointF,Humidity,Sea Level PressureIn,VisibilityMPH,Wind Direction,Wind SpeedMPH,Gust SpeedMPH,PrecipitationIn,Events,Conditions,WindDirDegrees,DateUTC
12:53 AM,41.0,35.1,79,30.11,10.0,Calm,Calm,-,N/A,,Clear,0,2013-02-15 06:53:00
1:53 AM,42.1,36.0,79,30.12,10.0,Calm,Calm,-,N/A,,Clear,0,2013-02-15 07:53:00
2:53 AM,41.0,37.0,86,30.12,10.0,Calm,Calm,-,N/A,,Clear,0,2013-02-15 08:53:00
3:53 AM,41.0,37.9,89,30.13,10.0,Calm,Calm,-,N/A,,Clear,0,2013-02-15 09:53:00
4:53 AM,42.1,35.1,76,30.16,10.0,Calm,Calm,-,N/A,,Clear,0,2013-02-15 10:53:00
5:53 AM,39.9,37.0,89,30.18,10.0,NNW,3.5,-,N/A,,Clear,340,2013-02-15 11:53:00
6:53 AM,41.0,35.1,79,30.21,10.0,North,5.8,-,N/A,,Clear,10,2013-02-15 12:53:00
7:53 AM,45.0,36.0,71,30.24,10.0,North,6.9,-,N/A,,Clear,360,2013-02-15 13:53:00
8:53 AM,48.9,37.9,66,30.26,10.0,North,5.8,-,N/A,,Clear,360,2013-02-15 14:53:00
9:53 AM,53.1,37.0,55,30.26,10.0,NNE,11.5,-,N/A,,Partly Cloudy,20,2013-02-15 15:53:00
10:53 AM,55.9,37.9,51,30.27,10.0,North,10.4,-,N/A,,Scattered Clouds,350,2013-02-15 16:53:00
11:53 AM,50.0,37.9,63,30.27,10.0,North,11.5,19.6,N/A,,Mostly Cloudy,10,2013-02-15 17:53:00
12:53 PM,46.0,39.9,79,30.27,10.0,North,5.8,-,0.02,Rain,Light Rain,350,2013-02-15 18:53:00
1:53 PM,48.0,44.1,86,30.25,10.0,WNW,8.1,-,0.00,,Overcast,300,2013-02-15 19:53:00
2:53 PM,48.0,43.0,83,30.24,10.0,West,4.6,-,N/A,,Overcast,280,2013-02-15 20:53:00
3:53 PM,48.9,42.1,77,30.23,10.0,West,5.8,-,N/A,,Overcast,260,2013-02-15 21:53:00
4:53 PM,50.0,41.0,71,30.23,10.0,WNW,4.6,-,N/A,,Overcast,300,2013-02-15 22:53:00
5:53 PM,48.9,32.0,52,30.24,10.0,WNW,4.6,-,N/A,,Mostly Cloudy,300,2013-02-15 23:53:00
6:53 PM,48.0,28.0,46,30.25,10.0,NW,5.8,-,N/A,,Scattered Clouds,320,2013-02-16 00:53:00
7:53 PM,46.0,21.9,39,30.27,10.0,NW,5.8,-,N/A,,Partly Cloudy,320,2013-02-16 01:53:00
8:53 PM,45.0,21.9,40,30.30,10.0,NNW,10.4,-,N/A,,Mostly Cloudy,330,2013-02-16 02:53:00
9:53 PM,44.1,21.0,40,30.32,10.0,NNW,8.1,-,N/A,,Scattered Clouds,330,2013-02-16 03:53:00
10:53 PM,43.0,21.0,42,30.33,10.0,NNW,6.9,-,N/A,,Mostly Cloudy,330,2013-02-16 04:53:00
11:53 PM,41.0,19.9,43,30.33,10.0,NNW,8.1,-,N/A,,Overcast,330,2013-02-16 05:53:00